#datetime,building,power
2024-01-03T00:00:00,mcc,35.61
2024-01-03T00:01:00,mcc,33.74
2024-01-03T00:02:00,mcc,33.59
2024-01-03T00:03:00,mcc,36.97
2024-01-03T00:04:00,mcc,34.91
2024-01-03T00:05:00,mcc,35.25
2024-01-03T00:06:00,mcc,36.56
2024-01-03T00:07:00,mcc,35.41
2024-01-03T00:08:00,mcc,33.44
2024-01-03T00:09:00,mcc,33.02
2024-01-03T00:10:00,mcc,32.10
2024-01-03T00:11:00,mcc,34.15
2024-01-03T00:12:00,mcc,36.21
2024-01-03T00:13:00,mcc,37.55
2024-01-03T00:14:00,mcc,36.36
2024-01-03T00:15:00,mcc,36.95
2024-01-03T00:16:00,mcc,36.79
2024-01-03T00:17:00,mcc,34.25
2024-01-03T00:18:00,mcc,34.94
2024-01-03T00:19:00,mcc,37.04
2024-01-03T00:20:00,mcc,39.36
2024-01-03T00:21:00,mcc,36.26
2024-01-03T00:22:00,mcc,33.85
2024-01-03T00:23:00,mcc,36.37
2024-01-03T00:24:00,mcc,33.85
2024-01-03T00:25:00,mcc,35.01
2024-01-03T00:26:00,mcc,37.75
2024-01-03T00:27:00,mcc,37.68
2024-01-03T00:28:00,mcc,38.68
2024-01-03T00:29:00,mcc,37.23
2024-01-03T00:30:00,mcc,34.68
2024-01-03T00:31:00,mcc,44.61
2024-01-03T00:32:00,mcc,35.28
2024-01-03T00:33:00,mcc,33.24
2024-01-03T00:34:00,mcc,37.11
2024-01-03T00:35:00,mcc,35.15
2024-01-03T00:36:00,mcc,35.51
2024-01-03T00:37:00,mcc,39.33
2024-01-03T00:38:00,mcc,43.90
2024-01-03T00:39:00,mcc,43.70
2024-01-03T00:40:00,mcc,46.50
2024-01-03T00:41:00,mcc,43.00
2024-01-03T00:42:00,mcc,41.79
2024-01-03T00:43:00,mcc,35.11
2024-01-03T00:44:00,mcc,31.61
2024-01-03T00:45:00,mcc,32.84
2024-01-03T00:46:00,mcc,32.80
2024-01-03T00:47:00,mcc,33.65
2024-01-03T00:48:00,mcc,33.83
2024-01-03T00:49:00,mcc,34.27
2024-01-03T00:50:00,mcc,36.12
2024-01-03T00:51:00,mcc,41.60
2024-01-03T00:52:00,mcc,33.55
2024-01-03T00:53:00,mcc,32.16
2024-01-03T00:54:00,mcc,33.09
2024-01-03T00:55:00,mcc,35.05
2024-01-03T00:56:00,mcc,34.12
2024-01-03T00:57:00,mcc,38.15
2024-01-03T00:58:00,mcc,35.00
2024-01-03T00:59:00,mcc,35.10
2024-01-03T01:00:00,mcc,36.17
2024-01-03T01:01:00,mcc,35.79
2024-01-03T01:02:00,mcc,36.80
2024-01-03T01:03:00,mcc,38.83
2024-01-03T01:04:00,mcc,34.26
2024-01-03T01:05:00,mcc,34.24
2024-01-03T01:06:00,mcc,38.74
2024-01-03T01:07:00,mcc,36.59
2024-01-03T01:08:00,mcc,37.61
2024-01-03T01:09:00,mcc,38.19
2024-01-03T01:10:00,mcc,39.09
2024-01-03T01:11:00,mcc,31.80
2024-01-03T01:12:00,mcc,32.99
2024-01-03T01:13:00,mcc,33.71
2024-01-03T01:14:00,mcc,35.64
2024-01-03T01:15:00,mcc,36.77
2024-01-03T01:16:00,mcc,36.75
2024-01-03T01:17:00,mcc,34.50
2024-01-03T01:18:00,mcc,34.62
2024-01-03T01:19:00,mcc,35.65
2024-01-03T01:20:00,mcc,35.52
2024-01-03T01:21:00,mcc,33.93
2024-01-03T01:22:00,mcc,33.17
2024-01-03T01:23:00,mcc,36.57
2024-01-03T01:24:00,mcc,33.88
2024-01-03T01:25:00,mcc,33.95
2024-01-03T01:26:00,mcc,37.16
2024-01-03T01:27:00,mcc,34.49
2024-01-03T01:28:00,mcc,35.89
2024-01-03T01:29:00,mcc,38.37
2024-01-03T01:30:00,mcc,36.07
2024-01-03T01:31:00,mcc,34.69
2024-01-03T01:32:00,mcc,35.59
2024-01-03T01:33:00,mcc,32.75
2024-01-03T01:34:00,mcc,32.42
2024-01-03T01:35:00,mcc,33.30
2024-01-03T01:36:00,mcc,32.02
2024-01-03T01:37:00,mcc,35.92
2024-01-03T01:38:00,mcc,33.43
2024-01-03T01:39:00,mcc,35.34
2024-01-03T01:40:00,mcc,34.14
2024-01-03T01:41:00,mcc,34.52
2024-01-03T01:42:00,mcc,35.63
2024-01-03T01:43:00,mcc,33.39
2024-01-03T01:44:00,mcc,35.97
2024-01-03T01:45:00,mcc,35.87
2024-01-03T01:46:00,mcc,34.50
2024-01-03T01:47:00,mcc,35.30
2024-01-03T01:48:00,mcc,43.52
2024-01-03T01:49:00,mcc,38.61
2024-01-03T01:50:00,mcc,37.23
2024-01-03T01:51:00,mcc,38.44
2024-01-03T01:52:00,mcc,40.18
2024-01-03T01:53:00,mcc,39.62
2024-01-03T01:54:00,mcc,36.87
2024-01-03T01:55:00,mcc,37.29
2024-01-03T01:56:00,mcc,37.48
2024-01-03T01:57:00,mcc,35.46
2024-01-03T01:58:00,mcc,37.66
2024-01-03T01:59:00,mcc,34.91
2024-01-03T02:00:00,mcc,37.70
2024-01-03T02:01:00,mcc,36.14
2024-01-03T02:02:00,mcc,36.57
2024-01-03T02:03:00,mcc,38.55
2024-01-03T02:04:00,mcc,36.73
2024-01-03T02:05:00,mcc,36.39
2024-01-03T02:06:00,mcc,37.98
2024-01-03T02:07:00,mcc,43.82
2024-01-03T02:08:00,mcc,36.12
2024-01-03T02:09:00,mcc,38.04
2024-01-03T02:10:00,mcc,36.53
2024-01-03T02:11:00,mcc,37.35
2024-01-03T02:12:00,mcc,36.79
2024-01-03T02:13:00,mcc,34.18
2024-01-03T02:14:00,mcc,33.82
2024-01-03T02:15:00,mcc,37.78
2024-01-03T02:16:00,mcc,34.67
2024-01-03T02:17:00,mcc,36.52
2024-01-03T02:18:00,mcc,39.51
2024-01-03T02:19:00,mcc,37.00
2024-01-03T02:20:00,mcc,38.33
2024-01-03T02:21:00,mcc,37.37
2024-01-03T02:22:00,mcc,37.38
2024-01-03T02:23:00,mcc,37.81
2024-01-03T02:24:00,mcc,37.68
2024-01-03T02:25:00,mcc,36.33
2024-01-03T02:26:00,mcc,44.28
2024-01-03T02:27:00,mcc,35.82
2024-01-03T02:28:00,mcc,36.82
2024-01-03T02:29:00,mcc,32.64
2024-01-03T02:30:00,mcc,32.41
2024-01-03T02:31:00,mcc,33.13
2024-01-03T02:32:00,mcc,36.30
2024-01-03T02:33:00,mcc,36.31
2024-01-03T02:34:00,mcc,34.26
2024-01-03T02:35:00,mcc,34.17
2024-01-03T02:36:00,mcc,33.85
2024-01-03T02:37:00,mcc,34.37
2024-01-03T02:38:00,mcc,36.29
2024-01-03T02:39:00,mcc,35.57
2024-01-03T02:40:00,mcc,32.96
2024-01-03T02:41:00,mcc,37.75
2024-01-03T02:42:00,mcc,36.31
2024-01-03T02:43:00,mcc,35.83
2024-01-03T02:44:00,mcc,36.91
2024-01-03T02:45:00,mcc,35.96
2024-01-03T02:46:00,mcc,35.11
2024-01-03T02:47:00,mcc,34.24
2024-01-03T02:48:00,mcc,32.45
2024-01-03T02:49:00,mcc,32.07
2024-01-03T02:50:00,mcc,35.59
2024-01-03T02:51:00,mcc,33.39
2024-01-03T02:52:00,mcc,34.66
2024-01-03T02:53:00,mcc,35.21
2024-01-03T02:54:00,mcc,34.39
2024-01-03T02:55:00,mcc,33.51
2024-01-03T02:56:00,mcc,36.05
2024-01-03T02:57:00,mcc,37.91
2024-01-03T02:58:00,mcc,35.83
2024-01-03T02:59:00,mcc,36.54
2024-01-03T03:00:00,mcc,34.71
2024-01-03T03:01:00,mcc,32.99
2024-01-03T03:02:00,mcc,33.73
2024-01-03T03:03:00,mcc,33.61
2024-01-03T03:04:00,mcc,33.84
2024-01-03T03:05:00,mcc,42.23
2024-01-03T03:06:00,mcc,35.03
2024-01-03T03:07:00,mcc,35.12
2024-01-03T03:08:00,mcc,35.75
2024-01-03T03:09:00,mcc,35.47
2024-01-03T03:10:00,mcc,45.00
2024-01-03T03:11:00,mcc,44.25
2024-01-03T03:12:00,mcc,44.02
2024-01-03T03:13:00,mcc,35.13
2024-01-03T03:14:00,mcc,33.28
2024-01-03T03:15:00,mcc,33.16
2024-01-03T03:16:00,mcc,36.97
2024-01-03T03:17:00,mcc,34.18
2024-01-03T03:18:00,mcc,33.31
2024-01-03T03:19:00,mcc,35.10
2024-01-03T03:20:00,mcc,35.28
2024-01-03T03:21:00,mcc,35.95
2024-01-03T03:22:00,mcc,38.70
2024-01-03T03:23:00,mcc,35.28
2024-01-03T03:24:00,mcc,35.84
2024-01-03T03:25:00,mcc,37.45
2024-01-03T03:26:00,mcc,35.31
2024-01-03T03:27:00,mcc,33.92
2024-01-03T03:28:00,mcc,36.81
2024-01-03T03:29:00,mcc,37.60
2024-01-03T03:30:00,mcc,37.06
2024-01-03T03:31:00,mcc,38.24
2024-01-03T03:32:00,mcc,37.00
2024-01-03T03:33:00,mcc,36.71
2024-01-03T03:34:00,mcc,37.61
2024-01-03T03:35:00,mcc,35.97
2024-01-03T03:36:00,mcc,35.18
2024-01-03T03:37:00,mcc,34.23
2024-01-03T03:38:00,mcc,36.85
2024-01-03T03:39:00,mcc,33.90
2024-01-03T03:40:00,mcc,33.99
2024-01-03T03:41:00,mcc,32.79
2024-01-03T03:42:00,mcc,32.81
2024-01-03T03:43:00,mcc,43.82
2024-01-03T03:44:00,mcc,34.61
2024-01-03T03:45:00,mcc,35.34
2024-01-03T03:46:00,mcc,34.50
2024-01-03T03:47:00,mcc,34.57
2024-01-03T03:48:00,mcc,37.34
2024-01-03T03:49:00,mcc,34.71
2024-01-03T03:50:00,mcc,35.06
2024-01-03T03:51:00,mcc,37.96
2024-01-03T03:52:00,mcc,36.15
2024-01-03T03:53:00,mcc,34.14
2024-01-03T03:54:00,mcc,34.13
2024-01-03T03:55:00,mcc,31.84
2024-01-03T03:56:00,mcc,34.86
2024-01-03T03:57:00,mcc,37.79
2024-01-03T03:58:00,mcc,35.53
2024-01-03T03:59:00,mcc,35.47
2024-01-03T04:00:00,mcc,38.61
2024-01-03T04:01:00,mcc,36.53
2024-01-03T04:02:00,mcc,38.61
2024-01-03T04:03:00,mcc,45.82
2024-01-03T04:04:00,mcc,35.55
2024-01-03T04:05:00,mcc,38.22
2024-01-03T04:06:00,mcc,34.78
2024-01-03T04:07:00,mcc,35.83
2024-01-03T04:08:00,mcc,36.38
2024-01-03T04:09:00,mcc,34.04
2024-01-03T04:10:00,mcc,33.76
2024-01-03T04:11:00,mcc,34.40
2024-01-03T04:12:00,mcc,32.54
2024-01-03T04:13:00,mcc,33.69
2024-01-03T04:14:00,mcc,35.72
2024-01-03T04:15:00,mcc,34.68
2024-01-03T04:16:00,mcc,35.39
2024-01-03T04:17:00,mcc,35.95
2024-01-03T04:18:00,mcc,33.81
2024-01-03T04:19:00,mcc,32.55
2024-01-03T04:20:00,mcc,34.09
2024-01-03T04:21:00,mcc,33.06
2024-01-03T04:22:00,mcc,36.98
2024-01-03T04:23:00,mcc,46.87
2024-01-03T04:24:00,mcc,38.57
2024-01-03T04:25:00,mcc,37.43
2024-01-03T04:26:00,mcc,39.47
2024-01-03T04:27:00,mcc,36.54
2024-01-03T04:28:00,mcc,35.32
2024-01-03T04:29:00,mcc,32.66
2024-01-03T04:30:00,mcc,32.74
2024-01-03T04:31:00,mcc,37.59
2024-01-03T04:32:00,mcc,37.55
2024-01-03T04:33:00,mcc,36.84
2024-01-03T04:34:00,mcc,53.29
2024-01-03T04:35:00,mcc,32.57
2024-01-03T04:36:00,mcc,31.62
2024-01-03T04:37:00,mcc,37.20
2024-01-03T04:38:00,mcc,34.56
2024-01-03T04:39:00,mcc,36.22
2024-01-03T04:40:00,mcc,38.11
2024-01-03T04:41:00,mcc,36.40
2024-01-03T04:42:00,mcc,35.44
2024-01-03T04:43:00,mcc,36.21
2024-01-03T04:44:00,mcc,34.31
2024-01-03T04:45:00,mcc,35.59
2024-01-03T04:46:00,mcc,38.19
2024-01-03T04:47:00,mcc,36.56
2024-01-03T04:48:00,mcc,36.21
2024-01-03T04:49:00,mcc,36.16
2024-01-03T04:50:00,mcc,41.07
2024-01-03T04:51:00,mcc,40.50
2024-01-03T04:52:00,mcc,40.65
2024-01-03T04:53:00,mcc,39.25
2024-01-03T04:54:00,mcc,31.10
2024-01-03T04:55:00,mcc,31.75
2024-01-03T04:56:00,mcc,31.95
2024-01-03T04:57:00,mcc,35.32
2024-01-03T04:58:00,mcc,35.11
2024-01-03T04:59:00,mcc,34.02
2024-01-03T05:00:00,mcc,34.42
2024-01-03T05:01:00,mcc,43.40
2024-01-03T05:02:00,mcc,34.37
2024-01-03T05:03:00,mcc,36.63
2024-01-03T05:04:00,mcc,34.87
2024-01-03T05:05:00,mcc,34.73
2024-01-03T05:06:00,mcc,35.96
2024-01-03T05:07:00,mcc,36.25
2024-01-03T05:08:00,mcc,34.76
2024-01-03T05:09:00,mcc,38.44
2024-01-03T05:10:00,mcc,36.58
2024-01-03T05:11:00,mcc,35.57
2024-01-03T05:12:00,mcc,40.51
2024-01-03T05:13:00,mcc,39.23
2024-01-03T05:14:00,mcc,38.92
2024-01-03T05:15:00,mcc,40.41
2024-01-03T05:16:00,mcc,38.52
2024-01-03T05:17:00,mcc,37.11
2024-01-03T05:18:00,mcc,37.32
2024-01-03T05:19:00,mcc,34.98
2024-01-03T05:20:00,mcc,34.80
2024-01-03T05:21:00,mcc,46.70
2024-01-03T05:22:00,mcc,33.83
2024-01-03T05:23:00,mcc,33.05
2024-01-03T05:24:00,mcc,34.21
2024-01-03T05:25:00,mcc,33.90
2024-01-03T05:26:00,mcc,35.52
2024-01-03T05:27:00,mcc,37.43
2024-01-03T05:28:00,mcc,38.44
2024-01-03T05:29:00,mcc,37.76
2024-01-03T05:30:00,mcc,37.07
2024-01-03T05:31:00,mcc,36.07
2024-01-03T05:32:00,mcc,35.55
2024-01-03T05:33:00,mcc,35.86
2024-01-03T05:34:00,mcc,34.21
2024-01-03T05:35:00,mcc,35.40
2024-01-03T05:36:00,mcc,35.15
2024-01-03T05:37:00,mcc,34.95
2024-01-03T05:38:00,mcc,37.75
2024-01-03T05:39:00,mcc,35.82
2024-01-03T05:40:00,mcc,44.84
2024-01-03T05:41:00,mcc,35.83
2024-01-03T05:42:00,mcc,35.55
2024-01-03T05:43:00,mcc,36.35
2024-01-03T05:44:00,mcc,36.43
2024-01-03T05:45:00,mcc,35.10
2024-01-03T05:46:00,mcc,34.93
2024-01-03T05:47:00,mcc,33.95
2024-01-03T05:48:00,mcc,31.74
2024-01-03T05:49:00,mcc,32.82
2024-01-03T05:50:00,mcc,35.40
2024-01-03T05:51:00,mcc,33.47
2024-01-03T05:52:00,mcc,34.42
2024-01-03T05:53:00,mcc,36.24
2024-01-03T05:54:00,mcc,36.03
2024-01-03T05:55:00,mcc,35.16
2024-01-03T05:56:00,mcc,36.00
2024-01-03T05:57:00,mcc,33.97
2024-01-03T05:58:00,mcc,34.70
2024-01-03T05:59:00,mcc,36.35
2024-01-03T06:00:00,mcc,36.54
2024-01-03T06:01:00,mcc,41.95
2024-01-03T06:02:00,mcc,48.83
2024-01-03T06:03:00,mcc,45.44
2024-01-03T06:04:00,mcc,45.57
2024-01-03T06:05:00,mcc,44.89
2024-01-03T06:06:00,mcc,44.15
2024-01-03T06:07:00,mcc,51.23
2024-01-03T06:08:00,mcc,49.08
2024-01-03T06:09:00,mcc,45.53
2024-01-03T06:10:00,mcc,38.35
2024-01-03T06:11:00,mcc,40.90
2024-01-03T06:12:00,mcc,38.53
2024-01-03T06:13:00,mcc,39.09
2024-01-03T06:14:00,mcc,39.93
2024-01-03T06:15:00,mcc,38.11
2024-01-03T06:16:00,mcc,40.11
2024-01-03T06:17:00,mcc,40.49
2024-01-03T06:18:00,mcc,38.92
2024-01-03T06:19:00,mcc,37.91
2024-01-03T06:20:00,mcc,38.86
2024-01-03T06:21:00,mcc,38.62
2024-01-03T06:22:00,mcc,42.21
2024-01-03T06:23:00,mcc,39.48
2024-01-03T06:24:00,mcc,40.44
2024-01-03T06:25:00,mcc,39.57
2024-01-03T06:26:00,mcc,39.94
2024-01-03T06:27:00,mcc,39.02
2024-01-03T06:28:00,mcc,45.26
2024-01-03T06:29:00,mcc,43.35
2024-01-03T06:30:00,mcc,49.14
2024-01-03T06:31:00,mcc,61.28
2024-01-03T06:32:00,mcc,60.72
2024-01-03T06:33:00,mcc,64.02
2024-01-03T06:34:00,mcc,57.65
2024-01-03T06:35:00,mcc,52.99
2024-01-03T06:36:00,mcc,56.36
2024-01-03T06:37:00,mcc,55.78
2024-01-03T06:38:00,mcc,54.06
2024-01-03T06:39:00,mcc,55.62
2024-01-03T06:40:00,mcc,56.51
2024-01-03T06:41:00,mcc,51.16
2024-01-03T06:42:00,mcc,52.62
2024-01-03T06:43:00,mcc,52.25
2024-01-03T06:44:00,mcc,50.99
2024-01-03T06:45:00,mcc,44.26
2024-01-03T06:46:00,mcc,58.00
2024-01-03T06:47:00,mcc,55.15
2024-01-03T06:48:00,mcc,54.27
2024-01-03T06:49:00,mcc,54.77
2024-01-03T06:50:00,mcc,44.67
2024-01-03T06:51:00,mcc,52.12
2024-01-03T06:52:00,mcc,48.32
2024-01-03T06:53:00,mcc,44.75
2024-01-03T06:54:00,mcc,44.92
2024-01-03T06:55:00,mcc,44.95
2024-01-03T06:56:00,mcc,52.15
2024-01-03T06:57:00,mcc,52.88
2024-01-03T06:58:00,mcc,59.04
2024-01-03T06:59:00,mcc,56.70
2024-01-03T07:00:00,mcc,57.45
2024-01-03T07:01:00,mcc,61.62
2024-01-03T07:02:00,mcc,61.74
2024-01-03T07:03:00,mcc,62.51
2024-01-03T07:04:00,mcc,73.92
2024-01-03T07:05:00,mcc,64.96
2024-01-03T07:06:00,mcc,64.80
2024-01-03T07:07:00,mcc,63.90
2024-01-03T07:08:00,mcc,62.59
2024-01-03T07:09:00,mcc,54.42
2024-01-03T07:10:00,mcc,56.38
2024-01-03T07:11:00,mcc,59.17
2024-01-03T07:12:00,mcc,59.00
2024-01-03T07:13:00,mcc,65.52
2024-01-03T07:14:00,mcc,64.21
2024-01-03T07:15:00,mcc,51.67
2024-01-03T07:16:00,mcc,56.54
2024-01-03T07:17:00,mcc,55.47
2024-01-03T07:18:00,mcc,63.99
2024-01-03T07:19:00,mcc,68.22
2024-01-03T07:20:00,mcc,55.23
2024-01-03T07:21:00,mcc,55.79
2024-01-03T07:22:00,mcc,64.67
2024-01-03T07:23:00,mcc,58.68
2024-01-03T07:24:00,mcc,56.77
2024-01-03T07:25:00,mcc,59.45
2024-01-03T07:26:00,mcc,53.63
2024-01-03T07:27:00,mcc,55.63
2024-01-03T07:28:00,mcc,52.90
2024-01-03T07:29:00,mcc,52.51
2024-01-03T07:30:00,mcc,61.05
2024-01-03T07:31:00,mcc,54.61
2024-01-03T07:32:00,mcc,65.98
2024-01-03T07:33:00,mcc,56.98
2024-01-03T07:34:00,mcc,59.97
2024-01-03T07:35:00,mcc,59.91
2024-01-03T07:36:00,mcc,63.52
2024-01-03T07:37:00,mcc,62.11
2024-01-03T07:38:00,mcc,55.52
2024-01-03T07:39:00,mcc,63.13
2024-01-03T07:40:00,mcc,55.95
2024-01-03T07:41:00,mcc,61.33
2024-01-03T07:42:00,mcc,62.05
2024-01-03T07:43:00,mcc,61.52
2024-01-03T07:44:00,mcc,63.31
2024-01-03T07:45:00,mcc,65.82
2024-01-03T07:46:00,mcc,73.78
2024-01-03T07:47:00,mcc,62.98
2024-01-03T07:48:00,mcc,62.31
2024-01-03T07:49:00,mcc,63.41
2024-01-03T07:50:00,mcc,62.21
2024-01-03T07:51:00,mcc,58.24
2024-01-03T07:52:00,mcc,55.29
2024-01-03T07:53:00,mcc,63.20
2024-01-03T07:54:00,mcc,56.35
2024-01-03T07:55:00,mcc,53.16
2024-01-03T07:56:00,mcc,53.99
2024-01-03T07:57:00,mcc,56.27
2024-01-03T07:58:00,mcc,58.00
2024-01-03T07:59:00,mcc,65.53
2024-01-03T08:00:00,mcc,54.10
2024-01-03T08:01:00,mcc,57.26
2024-01-03T08:02:00,mcc,55.44
2024-01-03T08:03:00,mcc,58.09
2024-01-03T08:04:00,mcc,58.57
2024-01-03T08:05:00,mcc,67.30
2024-01-03T08:06:00,mcc,58.22
2024-01-03T08:07:00,mcc,57.88
2024-01-03T08:08:00,mcc,55.81
2024-01-03T08:09:00,mcc,56.89
2024-01-03T08:10:00,mcc,57.71
2024-01-03T08:11:00,mcc,85.53
2024-01-03T08:12:00,mcc,62.58
2024-01-03T08:13:00,mcc,61.58
2024-01-03T08:14:00,mcc,61.44
2024-01-03T08:15:00,mcc,60.10
2024-01-03T08:16:00,mcc,58.22
2024-01-03T08:17:00,mcc,54.54
2024-01-03T08:18:00,mcc,54.03
2024-01-03T08:19:00,mcc,55.73
2024-01-03T08:20:00,mcc,54.24
2024-01-03T08:21:00,mcc,57.89
2024-01-03T08:22:00,mcc,55.82
2024-01-03T08:23:00,mcc,57.28
2024-01-03T08:24:00,mcc,60.03
2024-01-03T08:25:00,mcc,55.70
2024-01-03T08:26:00,mcc,53.91
2024-01-03T08:27:00,mcc,56.77
2024-01-03T08:28:00,mcc,56.78
2024-01-03T08:29:00,mcc,59.27
2024-01-03T08:30:00,mcc,62.47
2024-01-03T08:31:00,mcc,60.21
2024-01-03T08:32:00,mcc,58.95
2024-01-03T08:33:00,mcc,62.16
2024-01-03T08:34:00,mcc,63.13
2024-01-03T08:35:00,mcc,63.55
2024-01-03T08:36:00,mcc,64.13
2024-01-03T08:37:00,mcc,67.14
2024-01-03T08:38:00,mcc,57.54
2024-01-03T08:39:00,mcc,55.31
2024-01-03T08:40:00,mcc,55.91
2024-01-03T08:41:00,mcc,59.15
2024-01-03T08:42:00,mcc,55.92
2024-01-03T08:43:00,mcc,57.68
2024-01-03T08:44:00,mcc,60.49
2024-01-03T08:45:00,mcc,55.30
2024-01-03T08:46:00,mcc,63.46
2024-01-03T08:47:00,mcc,63.50
2024-01-03T08:48:00,mcc,63.22
2024-01-03T08:49:00,mcc,57.55
2024-01-03T08:50:00,mcc,61.40
2024-01-03T08:51:00,mcc,67.23
2024-01-03T08:52:00,mcc,62.09
2024-01-03T08:53:00,mcc,61.66
2024-01-03T08:54:00,mcc,61.75
2024-01-03T08:55:00,mcc,60.67
2024-01-03T08:56:00,mcc,68.42
2024-01-03T08:57:00,mcc,57.48
2024-01-03T08:58:00,mcc,66.47
2024-01-03T08:59:00,mcc,63.99
2024-01-03T09:00:00,mcc,66.90
2024-01-03T09:01:00,mcc,64.90
2024-01-03T09:02:00,mcc,74.47
2024-01-03T09:03:00,mcc,68.39
2024-01-03T09:04:00,mcc,65.68
2024-01-03T09:05:00,mcc,57.41
2024-01-03T09:06:00,mcc,56.36
2024-01-03T09:07:00,mcc,56.84
2024-01-03T09:08:00,mcc,59.37
2024-01-03T09:09:00,mcc,55.66
2024-01-03T09:10:00,mcc,72.65
2024-01-03T09:11:00,mcc,58.75
2024-01-03T09:12:00,mcc,64.78
2024-01-03T09:13:00,mcc,54.73
2024-01-03T09:14:00,mcc,55.75
2024-01-03T09:15:00,mcc,56.92
2024-01-03T09:16:00,mcc,58.84
2024-01-03T09:17:00,mcc,58.98
2024-01-03T09:18:00,mcc,59.77
2024-01-03T09:19:00,mcc,58.48
2024-01-03T09:20:00,mcc,58.54
2024-01-03T09:21:00,mcc,58.61
2024-01-03T09:22:00,mcc,61.04
2024-01-03T09:23:00,mcc,61.75
2024-01-03T09:24:00,mcc,60.23
2024-01-03T09:25:00,mcc,61.84
2024-01-03T09:26:00,mcc,56.27
2024-01-03T09:27:00,mcc,64.42
2024-01-03T09:28:00,mcc,67.62
2024-01-03T09:29:00,mcc,65.46
2024-01-03T09:30:00,mcc,67.34
2024-01-03T09:31:00,mcc,69.09
2024-01-03T09:32:00,mcc,57.59
2024-01-03T09:33:00,mcc,55.98
2024-01-03T09:34:00,mcc,56.48
2024-01-03T09:35:00,mcc,60.74
2024-01-03T09:36:00,mcc,59.02
2024-01-03T09:37:00,mcc,60.30
2024-01-03T09:38:00,mcc,58.94
2024-01-03T09:39:00,mcc,58.72
2024-01-03T09:40:00,mcc,57.25
2024-01-03T09:41:00,mcc,57.66
2024-01-03T09:42:00,mcc,60.86
2024-01-03T09:43:00,mcc,55.59
2024-01-03T09:44:00,mcc,57.55
2024-01-03T09:45:00,mcc,57.82
2024-01-03T09:46:00,mcc,56.13
2024-01-03T09:47:00,mcc,55.33
2024-01-03T09:48:00,mcc,57.45
2024-01-03T09:49:00,mcc,57.98
2024-01-03T09:50:00,mcc,66.58
2024-01-03T09:51:00,mcc,57.42
2024-01-03T09:52:00,mcc,57.88
2024-01-03T09:53:00,mcc,62.27
2024-01-03T09:54:00,mcc,60.21
2024-01-03T09:55:00,mcc,57.68
2024-01-03T09:56:00,mcc,58.72
2024-01-03T09:57:00,mcc,59.07
2024-01-03T09:58:00,mcc,58.49
2024-01-03T09:59:00,mcc,61.58
2024-01-03T10:00:00,mcc,62.81
2024-01-03T10:01:00,mcc,63.70
2024-01-03T10:02:00,mcc,63.41
2024-01-03T10:03:00,mcc,62.14
2024-01-03T10:04:00,mcc,64.79
2024-01-03T10:05:00,mcc,70.21
2024-01-03T10:06:00,mcc,69.15
2024-01-03T10:07:00,mcc,67.17
2024-01-03T10:08:00,mcc,77.08
2024-01-03T10:09:00,mcc,83.78
2024-01-03T10:10:00,mcc,67.08
2024-01-03T10:11:00,mcc,65.09
2024-01-03T10:12:00,mcc,65.12
2024-01-03T10:13:00,mcc,65.85
2024-01-03T10:14:00,mcc,66.17
2024-01-03T10:15:00,mcc,71.88
2024-01-03T10:16:00,mcc,66.05
2024-01-03T10:17:00,mcc,62.24
2024-01-03T10:18:00,mcc,62.23
2024-01-03T10:19:00,mcc,68.34
2024-01-03T10:20:00,mcc,65.57
2024-01-03T10:21:00,mcc,74.79
2024-01-03T10:22:00,mcc,76.86
2024-01-03T10:23:00,mcc,74.77
2024-01-03T10:24:00,mcc,83.56
2024-01-03T10:25:00,mcc,84.14
2024-01-03T10:26:00,mcc,71.39
2024-01-03T10:27:00,mcc,72.19
2024-01-03T10:28:00,mcc,64.57
2024-01-03T10:29:00,mcc,65.52
2024-01-03T10:30:00,mcc,67.94
2024-01-03T10:31:00,mcc,65.57
2024-01-03T10:32:00,mcc,64.56
2024-01-03T10:33:00,mcc,65.43
2024-01-03T10:34:00,mcc,70.64
2024-01-03T10:35:00,mcc,65.45
2024-01-03T10:36:00,mcc,66.22
2024-01-03T10:37:00,mcc,65.84
2024-01-03T10:38:00,mcc,63.24
2024-01-03T10:39:00,mcc,70.38
2024-01-03T10:40:00,mcc,63.79
2024-01-03T10:41:00,mcc,59.84
2024-01-03T10:42:00,mcc,64.40
2024-01-03T10:43:00,mcc,60.44
2024-01-03T10:44:00,mcc,59.52
2024-01-03T10:45:00,mcc,65.32
2024-01-03T10:46:00,mcc,73.57
2024-01-03T10:47:00,mcc,79.14
2024-01-03T10:48:00,mcc,63.62
2024-01-03T10:49:00,mcc,62.72
2024-01-03T10:50:00,mcc,65.40
2024-01-03T10:51:00,mcc,66.17
2024-01-03T10:52:00,mcc,79.00
2024-01-03T10:53:00,mcc,66.16
2024-01-03T10:54:00,mcc,67.87
2024-01-03T10:55:00,mcc,63.97
2024-01-03T10:56:00,mcc,64.76
2024-01-03T10:57:00,mcc,62.92
2024-01-03T10:58:00,mcc,69.26
2024-01-03T10:59:00,mcc,61.64
2024-01-03T11:00:00,mcc,64.72
2024-01-03T11:01:00,mcc,61.53
2024-01-03T11:02:00,mcc,62.80
2024-01-03T11:03:00,mcc,71.77
2024-01-03T11:04:00,mcc,71.45
2024-01-03T11:05:00,mcc,64.77
2024-01-03T11:06:00,mcc,65.85
2024-01-03T11:07:00,mcc,67.63
2024-01-03T11:08:00,mcc,72.34
2024-01-03T11:09:00,mcc,66.12
2024-01-03T11:10:00,mcc,64.07
2024-01-03T11:11:00,mcc,63.68
2024-01-03T11:12:00,mcc,64.83
2024-01-03T11:13:00,mcc,72.82
2024-01-03T11:14:00,mcc,65.45
2024-01-03T11:15:00,mcc,70.39
2024-01-03T11:16:00,mcc,69.67
2024-01-03T11:17:00,mcc,68.92
2024-01-03T11:18:00,mcc,75.39
2024-01-03T11:19:00,mcc,88.88
2024-01-03T11:20:00,mcc,73.95
2024-01-03T11:21:00,mcc,72.52
2024-01-03T11:22:00,mcc,65.44
2024-01-03T11:23:00,mcc,70.93
2024-01-03T11:24:00,mcc,68.26
2024-01-03T11:25:00,mcc,73.73
2024-01-03T11:26:00,mcc,68.29
2024-01-03T11:27:00,mcc,71.03
2024-01-03T11:28:00,mcc,75.38
2024-01-03T11:29:00,mcc,75.45
2024-01-03T11:30:00,mcc,67.46
2024-01-03T11:31:00,mcc,67.14
2024-01-03T11:32:00,mcc,67.98
2024-01-03T11:33:00,mcc,68.40
2024-01-03T11:34:00,mcc,65.81
2024-01-03T11:35:00,mcc,65.72
2024-01-03T11:36:00,mcc,73.10
2024-01-03T11:37:00,mcc,78.28
2024-01-03T11:38:00,mcc,67.47
2024-01-03T11:39:00,mcc,67.71
2024-01-03T11:40:00,mcc,66.55
2024-01-03T11:41:00,mcc,66.52
2024-01-03T11:42:00,mcc,78.67
2024-01-03T11:43:00,mcc,62.67
2024-01-03T11:44:00,mcc,63.00
2024-01-03T11:45:00,mcc,63.79
2024-01-03T11:46:00,mcc,63.56
2024-01-03T11:47:00,mcc,72.12
2024-01-03T11:48:00,mcc,67.36
2024-01-03T11:49:00,mcc,65.83
2024-01-03T11:50:00,mcc,63.03
2024-01-03T11:51:00,mcc,65.40
2024-01-03T11:52:00,mcc,69.50
2024-01-03T11:53:00,mcc,64.19
2024-01-03T11:54:00,mcc,81.02
2024-01-03T11:55:00,mcc,61.63
2024-01-03T11:56:00,mcc,67.93
2024-01-03T11:57:00,mcc,83.38
2024-01-03T11:58:00,mcc,68.68
2024-01-03T11:59:00,mcc,71.05
2024-01-03T12:00:00,mcc,70.48
2024-01-03T12:01:00,mcc,64.71
2024-01-03T12:02:00,mcc,73.27
2024-01-03T12:03:00,mcc,64.30
2024-01-03T12:04:00,mcc,64.39
2024-01-03T12:05:00,mcc,64.25
2024-01-03T12:06:00,mcc,78.52
2024-01-03T12:07:00,mcc,67.52
2024-01-03T12:08:00,mcc,64.56
2024-01-03T12:09:00,mcc,76.80
2024-01-03T12:10:00,mcc,61.21
2024-01-03T12:11:00,mcc,60.16
2024-01-03T12:12:00,mcc,71.56
2024-01-03T12:13:00,mcc,62.33
2024-01-03T12:14:00,mcc,63.24
2024-01-03T12:15:00,mcc,62.92
2024-01-03T12:16:00,mcc,71.50
2024-01-03T12:17:00,mcc,71.59
2024-01-03T12:18:00,mcc,62.37
2024-01-03T12:19:00,mcc,63.05
2024-01-03T12:20:00,mcc,69.15
2024-01-03T12:21:00,mcc,71.04
2024-01-03T12:22:00,mcc,61.79
2024-01-03T12:23:00,mcc,62.05
2024-01-03T12:24:00,mcc,61.13
2024-01-03T12:25:00,mcc,60.29
2024-01-03T12:26:00,mcc,63.95
2024-01-03T12:27:00,mcc,65.55
2024-01-03T12:28:00,mcc,65.58
2024-01-03T12:29:00,mcc,65.33
2024-01-03T12:30:00,mcc,63.52
2024-01-03T12:31:00,mcc,72.93
2024-01-03T12:32:00,mcc,63.63
2024-01-03T12:33:00,mcc,64.48
2024-01-03T12:34:00,mcc,63.81
2024-01-03T12:35:00,mcc,64.01
2024-01-03T12:36:00,mcc,73.66
2024-01-03T12:37:00,mcc,64.28
2024-01-03T12:38:00,mcc,63.96
2024-01-03T12:39:00,mcc,61.90
2024-01-03T12:40:00,mcc,62.39
2024-01-03T12:41:00,mcc,72.81
2024-01-03T12:42:00,mcc,60.48
2024-01-03T12:43:00,mcc,61.78
2024-01-03T12:44:00,mcc,62.41
2024-01-03T12:45:00,mcc,60.45
2024-01-03T12:46:00,mcc,68.21
2024-01-03T12:47:00,mcc,59.31
2024-01-03T12:48:00,mcc,61.96
2024-01-03T12:49:00,mcc,63.94
2024-01-03T12:50:00,mcc,65.47
2024-01-03T12:51:00,mcc,72.30
2024-01-03T12:52:00,mcc,62.55
2024-01-03T12:53:00,mcc,66.74
2024-01-03T12:54:00,mcc,62.29
2024-01-03T12:55:00,mcc,58.77
2024-01-03T12:56:00,mcc,73.03
2024-01-03T12:57:00,mcc,70.06
2024-01-03T12:58:00,mcc,64.89
2024-01-03T12:59:00,mcc,64.83
2024-01-03T13:00:00,mcc,64.48
2024-01-03T13:01:00,mcc,65.54
2024-01-03T13:02:00,mcc,64.87
2024-01-03T13:03:00,mcc,62.79
2024-01-03T13:04:00,mcc,62.34
2024-01-03T13:05:00,mcc,62.62
2024-01-03T13:06:00,mcc,60.54
2024-01-03T13:07:00,mcc,61.62
2024-01-03T13:08:00,mcc,63.80
2024-01-03T13:09:00,mcc,57.66
2024-01-03T13:10:00,mcc,59.25
2024-01-03T13:11:00,mcc,69.69
2024-01-03T13:12:00,mcc,60.30
2024-01-03T13:13:00,mcc,61.16
2024-01-03T13:14:00,mcc,63.51
2024-01-03T13:15:00,mcc,70.78
2024-01-03T13:16:00,mcc,78.82
2024-01-03T13:17:00,mcc,63.31
2024-01-03T13:18:00,mcc,64.79